EHI
0 0 0 0 0 0 0 0 0 0 0 0 0 0 1 1 1 0 0 0 0 0 0 1 1 1 0 0 1 2 2 2 5 8 10 9 7 6 7 5 2 1 1 0
0 0 0 0 0 0 0 0 0 0 0 0 0 0 0 1 1 0 0 0 0 0 0 0 0 0 0 0 1 2 2 2 4 8 10 10 10 9 8 6 4 2 2 1
0 0 0 0 0 0 0 0 0 0 0 0 1 0 1 2 2 1 0 0 0 0 0 1 1 1 1 1 1 2 1 2 4 6 9 11 11 10 8 7 5 3 2 1
0 0 0 0 0 0 0 0 0 0 0 0 0 0 1 3 3 1 0 0 0 1 1 3 4 4 4 3 2 2 2 3 4 6 8 9 9 8 7 7 5 3 1 1
0 0 0 0 0 0 0 0 0 0 0 0 0 0 1 2 2 1 1 1 1 2 3 6 7 7 6 6 5 5 6 7 7 6 6 6 5 5 5 5 4 3 2 2
0 0 0 0 0 0 0 0 0 0 0 0 0 0 0 1 1 1 1 2 2 2 3 5 7 6 6 7 8 9 11 11 9 7 5 3 3 3 3 3 3 3 3 3
0 0 0 0 0 0 0 0 0 0 0 0 0 0 0 0 0 0 1 2 2 1 1 4 6 6 7 9 10 10 11 11 9 7 4 2 2 2 2 1 1 3 3 3
0 0 0 0 0 0 0 0 0 0 0 0 0 0 0 0 0 0 0 1 1 0 1 3 6 8 10 12 11 10 10 10 9 6 3 2 1 1 1 0 1 2 2 1
0 0 0 0 0 0 0 0 0 0 0 0 0 0 0 0 0 0 0 0 0 0 1 3 5 8 11 12 11 10 9 9 8 6 3 1 2 1 0 0 0 1 1 0
0 0 0 0 0 0 0 0 0 0 0 0 0 0 0 0 0 0 0 0 0 0 1 2 4 7 10 10 9 8 8 7 6 5 4 2 3 3 2 1 0 0 0 0
0 0 0 0 0 0 0 0 0 0 0 0 0 0 0 0 0 0 1 1 1 1 0 1 3 6 8 8 7 7 7 6 5 5 5 2 2 4 4 2 1 0 0 0
0 0 0 0 0 0 0 0 0 0 0 0 0 0 0 0 0 0 1 2 3 3 1 1 3 5 6 7 6 6 6 6 5 5 4 2 2 3 4 3 2 1 0 0
0 0 0 0 0 0 0 0 0 0 0 0 0 0 0 1 0 0 1 1 2 2 0 0 2 4 5 5 4 4 5 6 5 3 2 2 2 2 3 3 3 2 1 0
0 0 0 0 0 0 0 0 0 0 0 0 0 0 0 0 0 0 0 0 0 0 0 1 2 2 3 4 3 4 4 4 2 1 1 2 2 2 3 3 3 2 1 0
0 0 0 0 0 0 0 0 0 0 0 0 0 0 0 0 0 0 0 0 0 0 0 1 1 1 1 2 3 3 3 1 0 0 0 1 1 3 3 3 3 3 1 1
0 0 0 0 0 0 0 0 0 0 0 0 0 0 0 0 0 0 0 0 0 0 0 0 0 0 0 1 1 2 2 1 0 0 0 0 1 3 3 3 3 3 3 2
0 0 0 0 0 0 0 0 0 0 0 0 0 0 0 0 0 0 0 0 0 0 0 0 0 0 0 0 0 1 1 1 0 0 0 1 2 3 3 3 3 3 3 3
0 0 0 0 0 0 0 0 0 0 0 0 0 0 0 0 0 0 0 0 0 0 0 0 0 0 0 0 0 0 0 0 0 0 0 1 3 3 3 3 3 3 3 3
0 0 0 0 0 0 0 0 0 0 0 0 0 0 0 0 0 0 0 0 0 0 0 0 0 0 0 0 0 0 0 0 0 0 1 2 3 3 3 3 3 3 3 3
0 0 0 0 0 0 0 0 0 0 0 0 0 0 0 0 0 0 0 0 0 0 0 0 0 0 0 0 0 0 0 0 0 0 1 2 3 3 3 3 3 3 3 3
0 0 0 0 0 0 0 0 0 0 0 0 0 0 0 0 0 0 0 0 0 0 0 0 0 0 0 0 0 0 0 0 0 1 2 3 3 3 3 3 3 3 3 2
0 0 0 0 0 0 0 0 0 0 0 0 0 0 0 0 0 0 0 0 0 0 0 0 0 0 0 0 0 0 0 0 0 1 2 3 3 3 3 3 3 2 1 1
0 0 0 0 0 0 0 0 0 0 0 0 0 0 0 0 0 0 0 0 0 0 0 0 0 0 0 0 0 0 0 0 0 1 3 5 4 3 3 3 2 1 0 0
0 0 0 0 0 0 0 0 0 0 0 0 0 0 0 0 0 0 0 0 0 0 0 0 0 0 0 0 0 0 0 0 0 1 3 5 5 3 3 3 3 2 1 1
0 0 0 0 0 0 0 0 0 0 0 0 0 0 0 0 0 0 0 0 0 0 0 0 0 0 0 0 0 0 0 0 0 0 1 3 4 3 3 3 3 2 2 2
0 0 0 0 0 0 0 0 0 0 0 0 0 0 0 0 0 0 0 0 0 0 0 0 0 0 0 0 0 0 0 0 0 0 0 1 3 3 3 3 2 2 2 2
Wind_Speed
8 6 6 6 6 7 7 5 5 3 5 5 6 6 7 9 8 6 6 6 6 7 6 6 7 5 4 3 2 4 4 3 3 2 2 2 2 2 3 3 3 3 4 4
7 8 6 5 4 6 7 7 5 3 4 4 5 6 6 8 9 6 5 5 6 6 7 7 7 6 4 3 3 4 4 4 4 2 2 2 2 2 2 2 3 3 3 4
8 3 4 5 6 8 8 7 5 4 3 6 5 6 7 8 8 8 6 4 5 5 6 7 7 6 4 3 2 3 4 4 4 3 2 2 2 2 2 2 2 2 3 3
7 5 5 6 7 7 6 4 5 5 5 5 6 5 7 9 8 8 6 4 4 5 6 7 7 6 5 3 2 3 4 4 4 3 3 3 2 2 1 1 1 2 3 3
4 3 6 7 5 6 4 4 6 7 7 8 8 7 4 9 8 8 7 6 4 6 7 7 7 6 5 4 3 3 4 5 4 4 4 3 2 1 1 1 2 2 2 2
5 4 4 4 4 5 4 5 8 8 6 8 9 7 3 6 7 8 8 7 6 6 7 7 7 6 5 5 4 4 4 4 4 4 3 3 3 2 2 2 1 1 1 2
8 7 5 4 6 6 6 5 3 4 5 5 4 5 1 7 6 6 7 7 6 6 6 6 7 6 6 6 4 4 4 4 4 3 3 3 3 2 2 1 1 1 1 1
7 6 7 5 5 4 6 7 5 4 3 2 2 3 4 9 7 6 6 7 7 6 6 6 7 6 5 5 4 4 4 4 3 2 2 2 2 2 1 1 2 1 1 0
5 2 5 5 4 6 6 6 6 7 9 6 3 3 7 7 7 6 6 7 7 7 6 6 7 6 6 6 4 3 3 3 3 2 2 2 2 2 2 2 2 1 1 1
7 5 4 5 4 7 6 6 4 4 4 5 4 3 4 9 8 6 6 6 6 6 7 7 6 6 6 5 4 3 3 3 3 3 2 2 2 2 2 2 2 1 1 1
7 7 4 5 6 6 6 7 6 4 5 4 3 1 3 6 7 6 5 6 6 5 6 6 6 6 6 6 5 4 3 3 3 3 2 2 2 2 2 2 2 1 1 1
4 5 6 6 4 4 4 6 7 5 5 5 4 0 5 5 6 6 5 5 5 5 5 5 5 6 5 5 5 4 4 3 3 2 2 2 2 2 2 2 2 1 1 1
3 5 6 4 3 5 5 6 6 6 5 5 5 1 5 5 5 5 5 5 5 5 5 4 4 5 5 4 4 4 4 4 3 3 2 2 2 2 2 2 1 1 1 1
3 6 7 7 4 3 6 6 7 7 5 6 6 4 2 4 4 4 4 5 5 5 4 4 4 3 4 4 4 4 4 4 3 3 3 2 2 2 2 2 2 1 1 0
4 7 10 10 8 8 8 8 8 10 9 8 6 5 2 1 3 3 4 5 5 5 4 4 3 3 3 4 4 3 4 4 4 3 3 2 2 2 2 2 2 1 0 0
6 7 9 10 10 11 11 10 10 10 10 9 8 6 2 1 2 3 4 4 3 3 3 3 3 2 2 2 3 3 3 3 4 3 3 3 2 2 2 2 2 1 1 1
5 7 8 8 7 9 11 9 10 8 6 6 6 3 1 1 1 2 3 3 3 3 3 3 2 2 1 2 1 2 3 3 3 3 2 2 2 2 2 2 2 2 2 1
7 7 5 6 7 10 3 1 2 3 3 3 2 0 1 2 2 3 3 2 3 3 3 2 2 2 1 2 2 2 2 2 2 2 2 2 2 2 2 2 2 2 2 1
7 7 6 5 7 8 4 3 2 2 3 2 2 1 2 2 1 1 3 3 3 3 3 2 2 1 1 1 2 2 1 2 2 2 2 2 2 2 2 3 3 2 2 1
6 7 7 6 7 7 1 4 2 1 2 2 2 2 2 1 1 1 4 4 4 3 3 3 2 1 1 1 2 1 1 1 2 1 1 2 2 3 3 2 2 1 1 2
6 7 8 8 8 5 2 3 3 3 1 3 2 2 2 1 1 2 4 3 3 2 3 2 2 1 1 1 1 1 2 2 1 1 1 1 2 3 2 2 1 1 1 1
6 5 7 7 8 5 3 3 2 2 4 3 3 2 2 3 4 4 3 2 2 2 2 2 2 1 1 1 1 1 1 0 0 1 1 1 1 2 1 1 1 1 1 1
5 4 3 3 2 2 3 1 2 3 2 2 2 3 2 2 2 2 2 2 1 1 1 1 1 1 1 1 1 1 1 0 1 1 1 1 1 1 1 2 1 1 1 1
4 3 4 4 3 1 1 2 3 2 2 3 2 2 1 0 1 1 1 1 0 0 0 0 1 1 1 1 1 0 0 0 1 1 1 1 1 1 1 1 1 1 1 1
4 3 5 7 4 3 1 1 1 2 2 2 2 1 0 1 0 0 0 0 0 1 1 0 1 1 1 1 1 1 0 1 1 1 1 1 1 1 2 1 1 1 1 2
6 6 6 5 4 3 2 1 1 1 1 1 1 1 1 1 1 0 0 0 0 1 1 1 1 1 1 1 1 1 1 1 2 1 1 1 1 1 2 2 1 1 1 1
Wind_Direction
215 224 235 229 225 258 280 269 254 205 170 206 223 215 190 178 192 196 188 183 174 161 146 135 125 118 116 108 107 103 112 103 93 78 63 70 62 47 41 35 28 19 25 28
226 227 246 265 266 262 269 271 267 209 188 225 238 233 205 183 188 195 202 189 175 159 149 137 127 128 131 128 126 108 102 98 89 79 83 94 90 79 71 36 27 18 28 29
237 226 237 250 242 246 247 258 263 274 236 237 252 246 216 187 183 186 201 192 173 163 151 139 135 137 136 133 137 115 105 98 94 88 73 69 66 55 49 37 23 8 26 36
243 229 243 250 251 255 257 270 277 265 256 254 231 251 214 187 180 180 182 190 170 151 139 137 138 135 137 134 134 120 107 101 97 95 87 90 85 74 49 44 32 19 26 32
238 228 245 250 259 269 280 299 276 260 256 265 244 252 215 167 176 184 181 179 167 144 141 140 135 130 126 125 127 109 104 99 94 94 97 95 90 91 75 57 48 40 32 28
246 238 257 269 265 260 281 265 259 254 253 255 242 233 233 168 176 178 171 170 160 143 137 132 128 128 123 117 115 109 106 101 106 108 112 108 102 95 81 54 53 47 43 32
232 216 215 239 246 221 229 249 252 225 216 237 219 222 184 130 142 155 160 158 150 140 134 131 131 135 131 127 128 123 116 109 111 114 115 117 118 120 114 91 71 54 48 34
239 213 189 197 239 252 230 239 260 277 267 279 224 224 115 115 119 132 141 145 142 137 134 137 135 137 134 128 128 127 123 124 122 121 115 111 111 102 99 89 78 62 57 43
285 209 155 165 227 263 255 247 272 286 291 286 234 159 124 132 134 133 139 138 144 145 143 142 138 143 138 134 133 136 140 136 133 141 134 114 104 94 96 96 83 72 41 23
288 284 187 161 206 230 266 296 285 263 279 279 267 239 165 157 146 144 146 143 143 145 147 144 141 141 137 135 138 146 148 150 146 151 150 113 106 111 101 97 91 84 67 28
273 273 225 184 210 228 219 240 259 274 268 275 287 24 91 137 143 148 143 140 144 145 144 144 145 145 143 143 152 163 162 152 153 149 142 136 133 128 109 95 91 69 68 63
256 277 261 227 202 216 240 248 253 258 275 281 283 298 104 109 118 129 132 132 135 138 136 138 141 143 147 153 159 163 165 160 157 150 151 150 143 138 132 124 118 97 46 19
308 269 265 229 190 201 228 240 255 268 275 271 265 210 123 115 108 114 124 134 137 137 133 132 136 148 152 157 163 165 170 159 150 150 163 163 158 155 151 142 130 121 82 358
297 264 262 268 286 255 237 240 244 249 253 260 261 262 183 139 120 118 126 131 134 135 134 139 146 154 156 160 169 167 164 156 157 160 172 172 172 163 154 141 138 146 130 39
245 258 266 274 282 285 266 255 247 248 251 259 265 277 295 102 124 131 132 133 136 145 147 145 152 155 159 160 170 170 161 159 165 170 176 178 180 158 144 140 145 147 144 294
231 260 270 269 264 268 267 256 247 246 252 257 264 272 312 352 82 120 129 132 141 143 140 138 144 148 159 161 176 165 161 163 170 180 181 169 167 156 152 154 154 165 193 248
229 249 264 267 266 270 259 251 241 240 240 252 256 260 332 319 56 63 116 137 147 142 139 144 157 157 166 173 175 167 166 163 169 175 172 158 155 157 161 167 168 189 199 213
253 255 258 265 261 251 246 128 201 231 235 241 257 297 22 39 57 74 95 124 135 137 138 142 147 142 155 162 157 136 152 163 169 174 170 162 163 168 172 182 197 198 195 207
245 251 256 253 258 261 228 191 188 219 237 218 196 132 81 62 52 92 80 85 99 118 125 126 123 120 151 158 141 138 164 173 180 177 166 168 169 181 191 204 208 198 191 211
231 241 251 253 256 257 197 124 132 213 244 132 149 148 134 125 258 133 86 77 79 100 115 118 123 140 146 130 128 157 186 192 201 180 178 185 181 187 200 202 208 207 186 205
210 224 235 249 254 259 98 119 135 213 144 96 100 105 127 154 54 91 97 84 76 87 109 118 136 141 135 135 149 203 215 214 194 151 171 200 191 194 194 195 188 189 202 215
220 222 225 234 242 244 131 160 190 82 79 74 62 66 80 75 77 83 91 91 92 85 111 131 139 137 137 158 188 225 238 226 116 164 187 209 194 187 175 170 194 191 188 208
233 239 248 233 228 105 128 105 61 58 66 64 59 57 66 82 90 89 92 93 93 87 117 138 151 151 159 169 181 246 264 154 178 207 197 189 173 156 156 167 185 203 204 199
262 259 266 270 262 228 137 77 68 49 32 53 62 57 49 52 99 101 102 89 53 292 179 186 175 186 209 176 173 229 327 233 208 216 205 178 167 146 128 140 171 190 215 214
285 282 268 265 270 292 296 9 44 53 43 39 48 58 15 324 264 136 174 139 317 308 309 262 226 220 238 217 205 177 199 242 234 219 208 178 166 165 163 161 171 186 209 204
267 268 257 260 281 292 311 2 21 22 3 14 52 61 25 352 320 314 288 115 287 278 277 273 259 243 237 219 223 213 201 228 233 216 209 191 182 184 172 162 143 127 182 175